Regional Weather Roundup
Issued by NWS

Home | Current Version | Previous Version | Text Only | Print | Product List | Glossary Off
Versions: 1 2 3 4 5 6 7 8 9 10 11 12 13 14 15 16 17 18 19 20 21 22 23 24 25 26 27 28 29 30 31 32 33 34 35 36 37 38 39 40 41 42 43 44 45 46 47 48 49 50

000
ASUS45 KBOU 042307
RWRCO

WEATHER ROUNDUP FOR COLORADO
NATIONAL WEATHER SERVICE DENVER/BOULDER CO
500 PM MDT MON MAY 04 2015

NOTE: "FAIR" INDICATES FEW OR NO CLOUDS BELOW 12000 FEET WITH NO
SIGNIFICANT WEATHER AND/OR OBSTRUCTIONS TO VISIBILITY.

COZ001>005-013-030-031-050000-
...NORTHWEST COLORADO...

CITY           SKY/WX    TMP DP  RH WIND       PRES   REMARKS
CRAIG          CLOUDY    62  38  40 SE3       29.99F
HAYDEN         NOT AVBL
MEEKER         CLOUDY    62  38  40 E3        29.99F
MOUNT WERNER   NOT AVBL
STEAMBOAT SPGS CLOUDY    56  38  51 W16       30.03R
WALDEN         CLOUDY    54  36  50 NW6       30.09F
$$

COZ006>008-011-050000-
...WEST CENTRAL VALLEYS...

CITY           SKY/WX    TMP DP  RH WIND       PRES   REMARKS
GRAND JUNCTION CLOUDY    62  41  46 W6        29.91F
MONTROSE       CLOUDY    67  35  30 NW9       29.95F
EAGLE          PTSUNNY   66  36  32 VRB7      29.98F
RIFLE          CLOUDY    64  44  48 NW3       29.94F
DELTA          CLOUDY    71  39  30 W12       29.92F
NUCLA          CLOUDY    61  41  48 CALM      30.00F
$$

COZ017>023-064>068-050000-
...SOUTHWEST COLORADO...

CITY           SKY/WX    TMP DP  RH WIND       PRES   REMARKS
DURANGO        PTSUNNY   64  33  31 W12G18    29.96F
CORTEZ         PTSUNNY   64  38  38 MISG      29.94F
PAGOSA SPRINGS CLOUDY    58  32  37 SW9       30.03S
TELLURIDE      TSTM      39  38  94 CALM      30.14S
WOLF CREEK PAS NOT AVBL
$$

COZ009-010-012-014-032>034-037-058>063-050000-
...CENTRAL COLORADO...

CITY           SKY/WX    TMP DP  RH WIND       PRES   REMARKS
ASPEN          PTSUNNY   53  40  61 MISG      30.05F
BUENA VISTA    NOT AVBL
COPPER MTN     CLOUDY    41  32  70 W15G21    30.26F
BERTHOUD PASS  TSTM      30  21  69 SW7       30.30S WCI  23
COTTONWOOD PAS PTSUNNY   55  34  44 SE13G18   30.15F THUNDER
GUNNISON       CLOUDY    54  36  50 NW10      30.05F
KREMMLING      CLOUDY    61  36  39 NW3       30.05F
LEADVILLE      PTSUNNY   48  29  47 CALM      30.15F
MONARCH PASS   CLOUDY    37  34  87 NE18      30.33F
SALIDA         PTSUNNY   60  42  52 E20G29    30.12S
SUNLIGHT       CLOUDY    46  32  57 CALM      30.22F THUNDER
WILKERSON PASS CLOUDY    34  32  93 S8        30.28S WCI  27
$$

COZ069>075-050000-
...SAN LUIS VALLEY/SANGRE DE CRISTO MOUNTAINS...

CITY           SKY/WX    TMP DP  RH WIND       PRES   REMARKS
ALAMOSA        PTSUNNY   61  32  33 MISG      30.01F
LA VETA PASS   FOG       39  37  93 MISG      30.18S VSB<1/4
SAGUACHE       CLOUDY    59  32  36 S23G37    30.03S
$$

COZ035-036-038>040-050000-
...NORTHERN COLORADO FRONT RANGE...

CITY           SKY/WX    TMP DP  RH WIND       PRES   REMARKS
DENVER INTL AP PTSUNNY   59  48  67 E15       30.04F
DMNS CITY PARK   N/A     58  48  69 N8G15     30.04S
AURORA         PTSUNNY   58  48  70 E14       30.05F
FRONT RANGE AP NOT AVBL
ERIE MUNI ARPT LGT RAIN  56  50  80 NE3       30.06S
BOULDER MUN AP CLOUDY    54  50  87 NW7       30.07S
CENTENNIAL     CLOUDY    57  49  74 E10       30.04F
BROOMFIELD     LGT RAIN  55  50  82 N8        30.07F
FORT COLLINS   CLOUDY    57  46  67 E7        30.08S
LONGMONT       DRIZZLE   57  49  75 N5        30.08S
$$

COZ041-046-047-076>085-087-088-050000-
...PIKES PEAK/PALMER DIVIDE AND SOUTHERN FOOTHILLS...

CITY           SKY/WX    TMP DP  RH WIND       PRES   REMARKS
COLO. SPRINGS  CLOUDY    59  46  62 S12       30.06S
A. F. ACADEMY  CLOUDY    57  46  67 S15       30.07S
ELLICOTT       CLOUDY   N/A N/A N/A SE15      30.06R
FALCON         RAIN      55  45  69 S9        30.10S
FORT CARSON    CLOUDY    59  47  62 SE14      30.04S
LIMON          CLOUDY    59  47  64 SE14      30.06S
MONUMENT HILL  CLOUDY    46  45  93 N7        30.10S
TRINIDAD       LGT RAIN  50  48  93 W7        30.07R FOG
$$

COZ042>045-048>051-090-091-050000-
...NORTHEAST COLORADO...

CITY           SKY/WX    TMP DP  RH WIND       PRES   REMARKS
GREELEY ARPT   MOSUNNY   61  45  55 SE13      30.06F
AKRON          PTSUNNY   55  46  71 E17       30.07F
BURLINGTON     CLOUDY    62  48  60 NE9       30.05S
WRAY           CLOUDY    55  47  72 NE14      30.07F
STERLING       MOSUNNY   59  45  58 E9        30.06F
HOLYOKE        NOT AVBL
FORT MORGAN    PTSUNNY   59  -9   6 E14       30.06S
$$

COZ086-089-092>099-050000-
...SOUTHEAST COLORADO...

CITY           SKY/WX    TMP DP  RH WIND       PRES   REMARKS
PUEBLO         CLOUDY    65  47  52 SE13      29.99S
LA JUNTA       CLOUDY    68  49  50 E9        29.99S
LAMAR          CLOUDY    64  59  83 CALM      29.96R
SPRINGFIELD      N/A     57  53  86 SW18G25   30.02R
$$



USA.gov is the U.S. government's official web portal to all federal, state and local government web resources and services.